Location: Daly City
(37.7058°N, 122.4619°W)
Time: 04:15:13
(UTC+00:00)

Daily predictions for brighter satellites

Satellite Brightness Start Highest point End
(mag) Time Altitude Azimuth Time Altitude Azimuth Time Altitude Azimuth
H-2A ROCKET BODY 3.9 03:01:11 10° WSW 03:05:29 35° S 03:19:37 10° ESE
CZ-4B R/B 4.0 03:06:54 10° SE 03:11:57 35° ENE 03:16:58 10° N
Hubble Space Telescope 2.4 03:10:17 10° SW 03:13:10 19° S 03:16:03 10° SE
Cosmos 1733 Rocket 4.4 03:09:17 10° SSW 03:13:31 45° W 03:17:47 10° N
[s.n.70599] 3.0 03:11:09 10° WNW 03:13:37 47° SSW 03:16:03 10° SE
Meteor 2-11 Rocket 4.4 03:13:22 10° N 03:19:30 81° E 03:25:33 10° S
Cosmos 2082 Rocket 3.5 03:14:20 10° NW 03:19:43 43° WSW 03:25:03 10° S
Resurs 1-3 3.7 03:16:02 10° SSE 03:20:17 56° ENE 03:24:33 10° N
USA 234 3.6 03:16:15 10° ESE 03:22:35 55° NE 03:28:55 10° NW
NOSS 3-1 (C) 3.5 03:19:36 10° S 03:23:44 32° ESE 03:28:22 10° NE
IKONOS-2 4.5 03:20:53 10° NNE 03:25:04 61° ESE 03:29:13 10° S
Cosmos 1025 Rocket 3.8 03:23:54 10° NNE 03:27:52 34° ENE 03:31:50 10° SE
Okean O Rocket 2.6 03:26:49 10° SE 03:30:26 27° ENE 03:34:07 10° NNE
Cosmos 2366 rocket 4.4 03:28:03 10° N 03:34:07 45° ENE 03:40:10 10° SSE
YAOGAN 1 4.3 03:32:13 10° SSW 03:36:09 35° W 03:40:06 10° NNW
Resurs 01 Rocket 2.4 03:32:30 11° SE 03:36:12 32° ENE 03:40:08 10° N
Cosmos 1346 Rocket 2.7 03:32:44 10° S 03:36:29 57° E 03:40:14 10° NNE
CARTOSAT-1 4.5 03:35:11 13° SE 03:38:17 29° ENE 03:41:59 10° N
SJ-6B 2.8 03:34:33 10° S 03:38:27 85° WSW 03:42:26 10° NNW
Cosmos 1975 Rocket 4.2 03:36:39 10° NNE 03:40:12 24° ENE 03:42:18 17° ESE
Cosmos 2218 Rocket 4.3 03:35:23 10° N 03:41:35 50° E 03:47:43 10° SSE
Cosmos 1328 3.9 03:39:53 10° N 03:43:33 48° E 03:46:51 12° SSE
ATLAS 3B R/B 3.4 03:39:01 10° S 03:44:56 32° ESE 03:51:13 10° NE
Cosmos 1302 Rocket 4.0 03:41:17 10° SSW 03:46:33 87° ESE 03:51:49 10° NNE
OAO 3 Rocket 3.3 03:42:56 10° W 03:47:46 65° S 03:51:07 20° ESE
Iridium 921 4.4 03:44:18 10° N 03:47:48 86° W 03:51:17 10° S
Centaur D-1AR AC-36 4.4 03:45:56 10° S 03:49:17 16° SE 03:50:48 15° SE
Cosmos 1892 2.6 03:47:37 10° N 03:51:11 76° W 03:54:43 10° S
USA 281 3.7 03:46:26 16° ESE 03:51:16 41° ENE 03:57:21 10° N
USA 186 1.5 03:49:11 15° SSE 03:51:41 69° ENE 03:54:43 10° N
Cosmos 1782 Rocket 3.4 03:47:50 10° S 03:52:08 71° E 03:56:31 10° NNE
Meteor 1-21 Rocket 4.3 03:50:50 10° N 03:56:45 67° E 04:02:36 10° SSE
DELTA 2 R/B (1) 3.8 03:52:02 10° WNW 03:57:34 61° SSW 04:01:06 22° SE
CZ-4 R/B 2.1 03:55:22 10° S 03:59:14 52° W 04:03:04 10° NNW
Cosmos 1455 2.4 03:57:59 10° SSW 04:01:31 64° W 04:05:04 10° N
ATLAS 5 CENTAUR R/B 1.0 04:01:12 10° SSW 04:04:24 47° ESE 04:07:44 10° NE
SPOT 5 4.3 04:03:53 21° E 04:05:19 24° ENE 04:09:27 10° NNE
Cosmos 968 Rocket 3.7 04:02:19 10° NNW 04:07:23 68° WSW 04:12:18 11° S
Cosmos 864 Rocket 4.5 04:05:27 10° N 04:11:42 89° ENE 04:17:59 10° S
Cosmos 1953 4.1 04:09:27 10° SW 04:12:53 31° WNW 04:16:20 10° NNW
Meteor 1-11 4.5 04:10:53 10° N 04:16:21 50° ENE 04:18:52 30° SE
Feng Yun 1-1 Rocket 4.4 04:10:59 10° S 04:16:25 76° WSW 04:22:01 10° NNW
Cosmos 1300 Rocket 3.7 04:14:07 10° SSW 04:18:27 73° W 04:22:50 10° N
CSL-04 Debris 4.3 04:15:50 12° S 04:20:54 75° WSW 04:26:22 10° NNW
USA 129 4.4 04:24:14 10° NNW 04:25:52 20° NW 04:25:52 20° NW
Okean 2 Rocket 4.3 04:29:19 26° ENE 04:29:19 26° ENE 04:32:01 10° NNE
SJ 16-02 1.4 04:24:49 10° NNW 04:29:08 71° WSW 04:30:56 34° S
MOS 1 4.4 04:28:08 36° SE 04:30:10 55° ENE 04:35:43 10° N
CZ-4C R/B 2.8 04:27:51 10° NNE 04:31:17 89° WNW 04:31:38 70° SSW
CSL-04 Rocket 4.0 04:26:37 14° S 04:31:21 66° WSW 04:36:50 10° NNW
OAO 1 Rocket 4.4 04:28:27 10° WSW 04:33:43 63° S 04:34:58 48° ESE
In-Cosmos 22 Rocket 4.0 04:28:27 10° N 04:33:53 85° E 04:36:36 31° S
IRS-1C Rocket 4.4 04:37:49 44° E 04:38:36 48° ENE 04:43:39 10° N
Cosmos 2369 Rocket 4.5 04:36:11 10° WSW 04:40:47 25° WNW 04:45:25 10° N
Cosmos 2297 Rocket 4.2 04:38:37 10° NNE 04:40:54 12° NE 04:41:24 12° NE
Cosmos 1992 Rocket 4.5 04:35:58 10° SSW 04:41:04 61° WNW 04:46:16 10° N
Cosmos 2098 Rocket 3.9 04:37:29 10° SSW 04:43:02 60° W 04:47:36 10° N
Sich 1 Rocket 4.5 04:45:04 35° NE 04:45:04 35° NE 04:47:58 10° NNE
Okean-O 2.5 04:43:30 62° SSE 04:44:14 90° WNW 04:48:39 10° NNW
MetOp-B 4.2 04:46:23 54° ESE 04:47:08 59° ENE 04:52:24 10° N
Terra 3.1 04:48:09 26° NE 04:48:09 26° NE 04:51:14 10° NNE
NOSS 3-1 (A) 2.7 04:45:49 10° SSW 04:50:33 82° ESE 04:56:05 10° NE
Hubble Space Telescope 3.0 04:50:16 10° SW 04:51:24 15° SW 04:51:24 15° SW
USA 245 4.4 04:59:47 52° ENE 04:59:47 52° ENE 05:04:40 10° N
IRS-1A Rocket 4.3 05:03:42 65° SE 05:04:27 74° ENE 05:10:20 10° N
USA 234 4.1 05:03:04 29° S 05:05:39 40° SW 05:11:44 10° WNW
Ariane Rocket 3.8 05:07:22 37° NE 05:07:22 37° NE 05:11:04 10° N
Okean O Rocket 3.7 05:04:11 15° SW 05:06:39 23° W 05:10:09 10° NW
Resurs 01 Rocket 3.9 05:09:59 12° SW 05:12:40 20° W 05:15:56 10° NW
SPOT 3 Rocket 4.4 05:15:06 38° NE 05:15:06 38° NE 05:18:54 10° N
Cosmos 1486 Rocket 4.1 05:15:30 10° NNW 05:20:11 72° NNW 05:20:11 72° NNW
Iridium 4 Rocket 3.8 05:29:08 65° N 05:29:08 65° N 05:33:56 10° N
ATLAS 3B R/B 3.6 05:28:33 10° SW 05:35:19 51° NW 05:42:35 10° NNE
USA 281 4.4 05:33:18 27° SW 05:35:44 35° WSW 05:41:40 10° NW
Cosmos 1605 Rocket 4.4 05:34:57 10° N 05:40:11 55° NE 05:40:11 55° NE
SPOT 5 4.0 05:43:02 42° W 05:43:02 42° W 05:48:03 10° NNW
ATLAS 5 CENTAUR R/B 4.4 05:47:36 10° WNW 05:48:40 11° NW 05:49:45 10° NNW
ERS-1 Rocket 4.2 05:56:07 38° NW 05:56:07 38° NW 05:59:37 10° NNW
Cosmos 2227 Rocket 4.0 05:51:53 10° N 05:54:46 22° NNE 05:54:46 22° NNE
CZ-4C R/B 3.9 06:15:00 10° NNW 06:21:29 37° NE 06:21:29 37° NE
Terra 4.2 06:26:51 19° WNW 06:26:51 19° WNW 06:28:44 10° NW
Cosmos 2297 Rocket 3.6 06:20:08 10° NNW 06:23:12 34° NNW 06:23:12 34° NNW
COSMOS 2455 4.2 06:23:39 10° NNW 06:27:12 35° N 06:27:12 35° N
Cosmos 2263 Rocket 4.4 06:55:27 10° N 06:57:20 19° NNE 06:57:20 19° NNE
CENTAUR R/B 4.1 06:54:52 10° NNW 07:02:34 41° NE 07:02:34 41° NE
CZ-4C R/B 4.3 08:03:02 10° NW 08:06:34 31° NW 08:06:34 31° NW
CENTAUR R/B 4.4 08:45:22 10° NW 08:49:42 33° NW 08:49:42 33° NW
SL-16 R/B 4.4 09:04:26 21° N 09:04:26 21° N 09:06:20 10° N
USA 215 4.4 08:58:25 10° NE 09:02:42 37° N 09:02:42 37° N
CZ-2D R/B 4.2 09:28:30 10° NNE 09:30:50 23° NE 09:30:50 23° NE
USA 267 4.5 09:39:08 33° NNW 09:39:08 33° NNW 09:42:35 10° NW
SL-16 R/B 4.5 09:36:56 18° E 09:39:14 23° ENE 09:43:53 10° NNE
COSMOS 2428 4.2 09:52:37 32° NE 09:52:37 32° NE 09:55:52 10° NNE
CZ-2C R/B 4.0 09:58:45 36° NE 09:58:45 36° NE 10:02:25 10° N
Cosmos 2237 Rocket 4.2 09:58:31 20° E 09:58:31 20° E 10:01:54 10° NE
Lacrosse 5 4.0 10:00:41 22° N 10:00:41 22° N 10:03:02 10° NNE
Resurs 1-4 Rocket 3.4 10:08:13 10° NNE 10:11:14 35° N 10:11:14 35° N
Cosmos 2333 Rocket 4.0 10:16:50 23° NNW 10:16:50 23° NNW 10:19:40 10° N
Cosmos 2360 Rocket 4.1 10:20:20 20° NNW 10:20:20 20° NNW 10:22:54 10° N
Nadezhda 4 Rocket 4.2 10:28:34 66° ENE 10:28:34 66° ENE 10:34:05 10° NNE
Cosmos 2322 Rocket 4.4 10:30:14 14° NW 10:30:14 14° NW 10:32:04 10° NNW
NOSS 0 Rocket 4.2 10:32:14 62° E 10:32:14 62° E 10:37:48 10° NNE
IDEFIX/ARIANE 42P 4.1 10:27:37 10° N 10:30:18 28° NNW 10:30:18 28° NNW
Cosmos 2278 Rocket 3.9 10:28:30 10° N 10:33:31 31° ENE 10:38:27 10° ESE
Cosmos 2219 Rocket 3.6 10:37:32 27° NNW 10:37:32 27° NNW 10:40:52 10° N
RESURS DK-1 4.5 10:39:59 25° NNE 10:39:59 25° NNE 10:41:44 10° NNE
ATLAS 5 CENTAUR R/B 4.1 10:42:32 28° SSE 10:42:32 28° SSE 10:46:27 10° SE
CZ-2C R/B 4.5 10:47:22 10° NE 10:51:31 24° E 10:53:57 17° SE
ADEOS II 2.8 10:54:37 10° N 10:58:31 43° NNW 10:58:31 43° NNW
Meteor 1-19 Rocket 4.3 11:02:23 68° SSE 11:03:06 79° E 11:09:06 10° NNE
Cosmos 923 Rocket 4.1 11:03:38 66° ESE 11:03:49 67° ESE 11:09:02 10° NNE
FENGYUN 3A 4.0 11:00:19 10° N 11:04:53 51° NW 11:04:53 51° NW
Cosmos 1092 Rocket 3.9 11:09:38 52° S 11:11:13 80° E 11:17:23 10° N
CZ-2D R/B 3.6 11:08:52 10° NNW 11:12:08 24° NW 11:12:08 24° NW
Envisat 3.6 11:08:30 10° NNE 11:13:27 51° E 11:15:01 37° SSE
UNK 3.8 11:18:31 66° NNW 11:18:31 66° NNW 11:22:31 10° NNW
Cosmos 1805 Rocket 4.0 11:13:41 10° N 11:17:00 52° N 11:17:00 52° N
Cosmos 2026 Rocket 3.9 11:16:45 50° S 11:18:33 89° W 11:24:56 10° N
Cosmos 1500 Rocket 4.5 11:14:10 10° NNW 11:17:04 39° NNW 11:17:04 39° NNW
SL-16 R/B 2.5 11:22:01 55° WSW 11:22:20 56° WSW 11:28:26 10° NNW
Cosmos 1733 4.2 11:21:22 10° N 11:23:46 39° N 11:23:46 39° N
YAOGAN 6 3.9 11:23:13 10° NNE 11:26:12 32° E 11:26:18 32° ESE
CZ-4 R/B 3.7 11:23:43 10° NNE 11:28:28 90° NNW 11:29:07 67° SSW
BlueWalker 3 4.3 11:25:35 10° NNW 11:28:39 22° NNE 11:31:42 10° E
Meteor 1-27 Rocket 3.8 11:29:05 53° WSW 11:29:43 56° W 11:35:22 10° N
Thor Agena Rocket 4.0 11:26:40 10° NNE 11:31:37 55° ESE 11:34:23 25° S
EO 1 Delta rocket 3.7 11:27:09 10° N 11:31:44 73° WNW 11:32:15 66° SW
Cosmos 1943 Rocket 3.0 11:26:56 10° NNW 11:32:28 52° ENE 11:37:59 10° SE
Meteor 2-4 Rocket 3.9 11:30:43 26° SSE 11:33:44 64° E 11:39:08 10° NNE
COSMOS 2428 4.1 11:34:36 23° WNW 11:34:53 23° NW 11:39:21 10° N
CZ-2C R/B 4.4 11:40:13 17° WNW 11:40:13 17° WNW 11:41:54 10° NW
Cosmos 1340 Rocket 2.6 11:39:28 79° SSE 11:39:40 85° E 11:43:32 10° N
ALOS 3.1 11:36:49 10° N 11:40:36 33° WNW 11:40:36 33° WNW
NOAA 11 4.2 11:35:33 10° NNE 11:41:01 80° ESE 11:44:06 27° S
Cosmos 2237 Rocket 2.5 11:40:21 44° W 11:41:28 50° WNW 11:46:59 10° NNE
Sich 1 3.9 11:38:44 10° NNW 11:41:29 33° NW 11:41:29 33° NW
Cosmos 1980 4.1 11:41:44 41° W 11:42:47 46° WNW 11:48:13 10° N
Lacrosse 5 4.5 11:42:10 10° NNW 11:43:00 10° NNW 11:43:50 10° N
Cosmos 2112 Rocket 3.9 11:41:26 41° SSW 11:43:21 86° WNW 11:48:44 10° NNE
Cosmos 1867 3.7 11:40:09 10° NW 11:45:26 50° WSW 11:50:40 10° S
Cosmos 1805 3.2 11:42:53 10° N 11:46:36 72° E 11:48:23 28° SSE
Cosmos 1328 Rocket 3.7 11:45:30 30° S 11:47:37 74° E 11:52:03 10° N
Aureole 2 4.5 11:43:55 10° NNW 11:48:04 78° WSW 11:48:52 53° S
Meteor 1-11 Rocket 4.2 11:43:40 10° NNW 11:48:36 35° W 11:48:36 35° W
Resurs 1-4 Rocket 4.3 11:51:36 10° NW 11:52:18 10° WNW 11:52:18 10° WNW
Cosmos 1743 Rocket 4.5 11:48:45 10° NNW 11:51:42 31° WNW 11:51:42 31° WNW
